星链-34897 (STARLINK-34897)

导读

STARLINK-34897是美国SpaceX公司星链互联网星座计划中的一颗卫星,于2025年8月14日发射升空。作为星链低轨卫星星座的组成部分,它旨在为全球提供高速低延迟互联网覆盖,补充星链网络的服务能力,尤其服务偏远地区与网络基础设施薄弱区域的互联网接入需求,进一步完善星座全球覆盖布局。

Basic Information
目录编号:
65212
目录名称:
STARLINK-34897
国际标识:
2025-176Q
轨道中心:
EARTH
卫星名称:
星链-34897
卫星全名:
星链-34897 (STARLINK-34897)
卫星状态:
在轨 (已飞行386 天)
发射日期:
2025-08-14 UTC
国别 :
美国 (US)
星等 :
--
Orbit Information
数据来源 国际轨道数据
星历时间: 2026-09-04T03:27:59+0800
10小时前
查看轨道信息
半长轴: 6840.826km
偏心率: 0.0000592
轨道倾角: 53.159°
近地点辐角 115.823°
升交点赤经 41.685°
平近点角 244.283°
近地点: 462.284km
远地点: 463.094km
周期: 93.847分钟
每日圈数: 15.344048
Detailed Information
固有亮度:
5
最大亮度:
2.5
卫星平台:
Starlink V1.0
覆盖范围:
全球
运营商:
太空探索技术公司
运营商所在国:
美国
制造商(研发单位):
太空探索技术公司
制造商所在国:
美国
使用方式:
暂无
Satellite Introduction
Starlink 计划是 SpaceX 推出的全球卫星互联网项目,通过发射低轨道卫星,为全球尤其是偏远地区提供高速、低延迟的互联网服务。自 2019 年起,Starlink 已部署数千颗卫星,旨在缩小全球数字鸿沟,推动互联网普及。该项目还为军事、航空等行业提供通信支持,带来广泛经济效益。
2D Orbit Map
3D Orbit Map
Orbit Altitude Analysis Chart
Orbit Inclination Analysis Chart
Orbit Comprehensive Analysis Chart
View Comprehensive Chart
Conjunction Data List
Event ID Objects TCA Miss Dist (km) Collision Risk Probability Collision Risk Index (CRI) Action
CDM_260905-033405-181406-521221
2026-09-05T
03:34:52+0000
2.836 km
极远距离
1.276782E-6 低风险 0.37